Wind_Speed
18 14 15 12 12 12 12 13 12 13 12 12 11 12 11 11 11 10 11 10 9 9
16 15 16 14 12 12 12 10 9 9 9 10 11 12 12 12 12 11 11 11 11 11
15 15 15 13 11 10 9 8 7 7 7 8 9 9 10 10 10 11 12 11 12 11
16 15 13 12 10 8 6 4 2 3 4 6 7 9 10 10 10 12 12 11 12 13
17 16 13 11 10 8 6 3 1 2 4 6 8 10 10 9 11 11 12 13 13 15
18 16 14 12 10 8 7 5 3 3 5 6 8 9 9 9 11 11 12 13 14 15
19 19 17 15 12 11 9 7 5 4 6 7 9 9 8 10 10 12 12 13 14 16
22 20 18 17 16 13 11 8 7 7 9 9 9 8 10 10 12 13 15 15 15 16
23 24 22 19 18 15 13 11 10 10 10 10 9 11 10 11 13 14 15 16 16 17
27 26 24 23 21 17 15 13 12 12 12 12 11 12 11 12 13 15 15 16 17 18
29 29 27 25 23 19 17 15 14 14 14 13 13 12 13 13 14 14 15 16 17 18
31 31 30 28 23 20 18 16 15 15 15 15 14 13 13 12 13 14 15 16 17 19
29 31 32 27 23 21 19 17 15 16 16 16 15 13 12 11 12 14 16 17 18 19
24 27 27 25 22 20 18 17 16 17 17 16 14 12 11 10 12 14 17 20 22 22
Wind_Direction
131 131 126 125 124 112 105 93 83 70 61 54 45 39 32 25 21 15 13 6 359 343
140 139 133 128 119 111 103 97 82 63 48 35 24 16 10 6 1 359 355 350 342 337
149 143 139 132 127 120 108 88 68 45 29 13 2 354 348 344 340 340 337 335 333 330
159 157 149 146 138 124 115 109 77 22 359 353 346 342 337 332 330 330 328 328 325 322
170 168 164 162 158 157 162 171 209 333 338 337 335 332 326 322 323 322 320 318 318 315
185 181 182 185 183 184 191 208 240 289 310 319 323 323 316 313 310 308 307 307 307 307
197 196 197 199 201 205 215 227 248 277 299 307 313 312 300 304 300 299 298 300 300 301
207 206 206 208 212 219 229 235 251 268 284 293 304 292 296 299 301 301 302 301 301 300
211 214 215 218 222 226 232 244 256 266 276 283 292 297 304 303 302 299 299 300 300 299
221 220 220 221 225 232 238 248 259 267 274 280 291 303 305 299 299 296 294 297 300 302
228 227 224 225 228 233 241 252 260 266 273 277 293 303 303 300 299 292 293 295 298 299
231 229 226 228 229 236 244 253 259 268 272 281 295 303 305 300 297 293 294 297 299 298
236 234 231 230 231 238 246 255 262 268 275 286 295 301 302 295 294 294 300 303 303 301
235 232 227 225 229 238 247 256 265 274 280 285 290 301 309 293 293 296 302 302 304 305
Height
869 874 874 877 878 878 878 878 879 878 879 880 880 878 879 878 876 876 874 873 872 872
870 873 873 876 878 878 878 879 878 879 879 879 878 878 878 876 875 876 873 871 870 869
871 872 873 874 877 878 879 880 879 880 879 879 880 879 878 875 875 874 872 870 868 867
869 872 873 874 876 877 878 880 879 881 880 878 877 876 876 874 872 871 869 868 865 863
865 869 871 874 875 875 876 878 879 878 877 876 876 874 873 872 870 868 866 864 862 860
865 865 869 873 873 874 874 876 875 875 875 874 873 871 870 869 867 865 863 861 859 856
861 862 864 868 871 872 872 873 873 870 872 871 869 868 867 866 864 862 860 857 855 852
857 859 861 863 866 868 870 869 869 868 868 867 865 864 863 861 859 857 854 852 850 847
852 855 857 862 865 864 863 864 865 864 863 862 860 859 857 856 854 852 849 847 844 842
849 851 854 857 859 863 860 860 860 859 858 857 855 853 852 850 848 847 844 842 839 836
843 845 848 852 853 856 856 855 855 855 854 852 850 847 846 845 843 841 838 836 833 830
836 839 842 845 848 850 851 850 850 849 848 847 844 842 840 839 838 835 832 830 828 825
828 831 835 839 842 844 844 844 844 843 842 840 838 837 836 834 833 830 827 825 822 820
823 824 829 832 836 838 838 838 838 837 836 834 833 831 830 829 828 825 822 819 816 813